[[{"header":{"parameterUnit":"m.s-1","parameterCategory":1,"la1":30.2991,"la2":30.254,"lo1":-89.0895,"lo2":-89.0444,"dy":0.0017,"dx":0.0017,"nx":28,"ny":28,"refTime":"2024-04-23T03:00:00:Z","depth":0,"parameterNumber":2,"parameterNumberName":"U-component_of_WINDS"},"data":[0,0,0,0,0,0,0,0,0,0,0,0,0,0,0,0,0,0,0,0,0,0,0,0,0,0,0,0,0,0,0,0,0,0,0,0,0,0,0,0,0,0,0,0,0,0,0,0,0,0,0,0,0,0,0,0,0,0,-2.8076,-2.8076,0,-2.8106,-2.8106,-2.8107,-2.8096,-2.8096,-2.8095,-2.8094,-2.8125,-2.8127,-2.8128,0,0,0,0,0,0,0,0,0,0,0,0,0,-2.8011,-2.8012,-2.8076,-2.8076,-2.8077,-2.8106,-2.8106,-2.8107,-2.8097,-2.8096,-2.8095,-2.8094,-2.8125,-2.8126,-2.8128,0,0,0,0,0,0,0,0,0,0,0,0,0,-2.804,-2.8013,-2.8076,-2.8075,-2.8075,-2.8106,-2.8106,-2.8107,-2.8097,-2.8096,-2.8095,-2.8094,-2.8124,-2.8126,-2.8128,-2.8162,0,0,-2.8135,-2.8136,0,0,0,0,0,0,0,0,-2.8038,-2.8042,-2.8075,-2.8075,-2.8076,-2.8096,-2.8095,-2.8125,-2.8097,-2.8089,-2.8094,-2.8093,-2.8116,-2.8119,-2.8127,-2.8163,-2.8164,-2.8135,-2.8137,-2.8137,-2.8138,0,0,0,0,0,0,0,-2.8036,-2.8041,-2.8088,-2.8075,-2.8076,-2.8074,-2.8077,-2.81,-2.8108,-2.8089,-2.8089,-2.8092,-2.8116,-2.8125,-2.8128,-2.8165,-2.8135,-2.8137,-2.8138,-2.8139,-2.823,-2.8231,0,0,0,0,0,0,-2.8034,-2.8039,-2.8087,-2.8089,-2.8054,-2.8076,-2.8079,-2.8091,-2.8107,-2.8109,-2.8093,-2.8092,-2.8122,-2.8125,-2.8129,-2.8168,-2.8137,-2.8139,-2.8141,-2.8229,-2.823,-2.8231,0,0,0,0,0,0,-2.8033,-2.8038,-2.8086,-2.8064,-2.807,-2.8078,-2.8091,-2.8092,-2.81,-2.811,-2.8112,-2.81,-2.8121,-2.8126,-2.8154,-2.8169,-2.814,-2.8142,-2.8228,-2.8229,-2.8231,-2.8248,0,0,0,0,0,0,-2.8031,-2.8038,-2.805,-2.8064,-2.8071,-2.811,-2.8092,-2.8093,-2.8104,-2.8102,-2.8117,-2.8119,-2.8121,-2.815,-2.8156,-2.8172,-2.8144,-2.8226,-2.8228,-2.823,-2.8246,-2.825,-2.8254,0,0,0,0,0,-2.8028,-2.8054,-2.8051,-2.8057,-2.8087,-2.8111,-2.8115,-2.8116,-2.8105,-2.8118,-2.8125,-2.8119,-2.8167,-2.8153,-2.8159,-2.8176,-2.8225,-2.8228,-2.823,-2.8245,-2.825,-2.8254,0,0,0,0,0,0,-2.8041,-2.8056,-2.8052,-2.8083,-2.8096,-2.8109,-2.8125,-2.8121,-2.8137,-2.8135,-2.8136,-2.814,-2.8168,-2.8175,-2.816,-2.821,-2.8195,-2.8198,-2.8204,-2.8208,-2.8212,-2.8209,-2.8146,0,0,0,0,0,-2.8048,-2.8066,-2.8078,-2.8104,-2.811,-2.8117,-2.8127,-2.8127,-2.814,-2.8146,-2.8154,-2.8167,-2.8186,-2.8198,-2.8215,-2.8248,-2.8251,-2.8263,-2.8266,-2.8269,-2.8272,-2.8291,-2.8296,-2.824,-2.824,-2.824,0,0,-2.8061,-2.8071,-2.8083,-2.8106,-2.8116,-2.8135,-2.8121,-2.8142,-2.8156,-2.8149,-2.8175,-2.8183,-2.8197,-2.8228,-2.8242,-2.8235,-2.8289,-2.8273,-2.8275,-2.8276,-2.8294,-2.8299,-2.8304,-2.8241,-2.8241,-2.8241,0,0,-2.8095,-2.8104,-2.8127,-2.8138,-2.8153,-2.8157,-2.8163,-2.8177,-2.8181,-2.8208,-2.8203,-2.822,-2.8252,-2.8263,-2.8272,-2.8312,-2.8307,-2.8318,-2.8337,-2.8354,-2.8359,-2.8363,-2.8377,-2.8381,-2.8321,-2.8321,-2.8321,0,-2.8109,-2.8138,-2.8139,-2.8161,-2.8171,-2.8166,-2.8189,-2.82,-2.822,-2.8227,-2.8219,-2.8259,-2.8269,-2.8302,-2.8312,-2.832,-2.8326,-2.8315,-2.8358,-2.8362,-2.8366,-2.8379,-2.8384,-2.8322,-2.8322,-2.8322,-2.8322,0,-2.8155,-2.8175,-2.8191,-2.8211,-2.8224,-2.8246,-2.8251,-2.8264,-2.8264,-2.8269,-2.8297,-2.8309,-2.8328,-2.8337,-2.8336,-2.837,-2.8365,-2.8358,-2.8342,-2.8372,-2.8384,-2.839,-2.8324,-2.8323,-2.8323,-2.8323,0,0,-2.8196,-2.8217,-2.8223,-2.8232,-2.8249,-2.8265,-2.8287,-2.8306,-2.8317,-2.8332,-2.8351,-2.8378,-2.8372,-2.8383,-2.8384,-2.8399,-2.843,-2.839,-2.8391,-2.8397,-2.8468,-2.8473,-2.8478,-2.8427,-2.8428,-2.8429,-2.8466,0,-2.8231,-2.8269,-2.8272,-2.8307,-2.8326,-2.8322,-2.8342,-2.8354,-2.836,-2.8377,-2.8384,-2.8403,-2.8393,-2.84,-2.8415,-2.8423,-2.8444,-2.842,-2.8445,-2.8445,-2.844,-2.8485,-2.849,-2.8524,-2.8471,-2.8472,-2.8473,0,-2.8276,-2.8292,-2.8329,-2.8344,-2.8352,-2.8369,-2.8388,-2.8404,-2.8419,-2.8422,-2.8435,-2.8434,-2.8457,-2.8442,-2.8475,-2.8459,-2.8469,-2.8474,-2.8476,-2.8477,-2.846,-2.8487,-2.8535,-2.854,-2.848,-2.848,-2.8479,0,-2.8302,-2.8333,-2.8359,-2.8367,-2.8385,-2.8398,-2.8406,-2.842,-2.8431,-2.8448,-2.8455,-2.8474,-2.8485,-2.85,-2.8504,-2.8493,-2.8536,-2.8522,-2.854,-2.854,-2.8548,-2.8547,-2.8598,-2.8556,-2.8556,-2.8556,-2.8556,0,-2.834,-2.8363,-2.8371,-2.8387,-2.8412,-2.8416,-2.8441,-2.8449,-2.8461,-2.8479,-2.8477,-2.8494,-2.8499,-2.8517,-2.8521,-2.8547,-2.8552,-2.8556,-2.8556,-2.8555,-2.8555,-2.8561,-2.8559,-2.8557,-2.8557,-2.8557,-2.8557,0,-2.8373,-2.8379,-2.8407,-2.8423,-2.8427,-2.8445,-2.8458,-2.8474,-2.848,-2.8503,-2.8508,-2.8518,-2.8539,-2.8545,-2.857,-2.8573,-2.8604,-2.8602,-2.8598,-2.8598,-2.8616,-2.8614,-2.8672,-2.868,-2.8633,-2.8634,-2.8634,0,-2.8396,-2.8414,-2.8431,-2.8442,-2.8451,-2.847,-2.8482,-2.8487,-2.8499,-2.8518,-2.8532,-2.8552,-2.8569,-2.8603,-2.8612,-2.8632,-2.8631,-2.865,-2.8634,-2.8632,-2.863,-2.8629,-2.8631,-2.8653,-2.8653,-2.8653,-2.8654,0,-2.8437,-2.844,-2.8457,-2.8476,-2.849,-2.8505,-2.852,-2.853,-2.8536,-2.8551,-2.8572,-2.8585,-2.8611,-2.8632,-2.8652,-2.8661,-2.8659,-2.8659,-2.8664,-2.8663,-2.866,-2.8661,-2.8606,-2.8657,-2.8657,-2.8657,-2.8657,-2.8656,-2.8466,-2.8481,-2.8496,-2.8515,-2.8527,-2.854,-2.8556,-2.8564,-2.8582,-2.8603,-2.8605,-2.8628,-2.8644,-2.867,-2.868,-2.8699,-2.8693,-2.8701,-2.8702,-2.8704,-2.8705,-2.8657,-2.8702,-2.8702,-2.8702,-2.8702,-2.8702,0,-2.8506,-2.8516,-2.8534,-2.8554,-2.8569,-2.8566,-2.8582,-2.8596,-2.8616,-2.863,-2.8647,-2.8672,-2.8692,-2.8704,-2.8724,-2.8737,-2.8736,-2.8742,-2.874,-2.8743,-2.8709,-2.8702,-2.8742,-2.8742,-2.8742,-2.8742,-2.8742,-2.8742,-2.8529,-2.8555,-2.8559,-2.8591,-2.86,-2.8623,-2.8632,-2.8645,-2.8656,-2.8684,-2.8701,-2.8708,-2.8722,-2.8743,-2.8762,-2.8765,-2.8772,-2.8778,-2.8781,-2.8749,-2.8745,-2.8741,-2.8735,-2.878,-2.878,-2.8813,-2.8813,-2.8813]},{"header":{"parameterUnit":"m.s-1","parameterCategory":1,"la1":30.2991,"la2":30.254,"lo1":-89.0895,"lo2":-89.0444,"dy":0.0017,"dx":0.0017,"nx":28,"ny":28,"refTime":"2024-04-23T03:00:00:Z","depth":0,"parameterNumber":3,"parameterNumberName":"V-component_of_WINDS"},"data":[0,0,0,0,0,0,0,0,0,0,0,0,0,0,0,0,0,0,0,0,0,0,0,0,0,0,0,0,0,0,0,0,0,0,0,0,0,0,0,0,0,0,0,0,0,0,0,0,0,0,0,0,0,0,0,0,0,0,4.482,4.482,0,4.4866,4.4867,4.4867,4.488,4.488,4.4879,4.4879,4.4923,4.4924,4.4926,0,0,0,0,0,0,0,0,0,0,0,0,0,4.4739,4.4741,4.482,4.482,4.4821,4.4866,4.4867,4.4867,4.488,4.488,4.4879,4.4879,4.4922,4.4924,4.4926,0,0,0,0,0,0,0,0,0,0,0,0,0,4.4779,4.4741,4.482,4.4833,4.4834,4.4866,4.4867,4.4868,4.488,4.488,4.4879,4.4879,4.4922,4.4924,4.4926,4.4947,0,0,4.4932,4.4933,0,0,0,0,0,0,0,0,4.4777,4.4782,4.483,4.4832,4.4834,4.4867,4.4854,4.4894,4.488,4.4863,4.4879,4.4879,4.4904,4.4908,4.4917,4.4949,4.4951,4.4933,4.4934,4.4935,4.4935,0,0,0,0,0,0,0,4.4774,4.478,4.4838,4.4831,4.4833,4.4835,4.4841,4.4862,4.4885,4.4864,4.4865,4.4871,4.4905,4.4915,4.4918,4.4951,4.4933,4.4934,4.4936,4.4937,4.5003,4.5003,0,0,0,0,0,0,4.4769,4.4777,4.4837,4.4839,4.4804,4.4837,4.4843,4.4857,4.4885,4.4889,4.4871,4.4871,4.4912,4.4916,4.492,4.4947,4.4935,4.4937,4.4938,4.5002,4.5003,4.5004,0,0,0,0,0,0,4.4768,4.4774,4.4835,4.4809,4.4817,4.4839,4.4854,4.4858,4.4868,4.489,4.4894,4.4877,4.4912,4.4917,4.494,4.4948,4.4938,4.494,4.5002,4.5003,4.5003,4.5,0,0,0,0,0,0,4.4765,4.4774,4.4782,4.4809,4.4818,4.4855,4.4855,4.4859,4.4872,4.4873,4.4897,4.49,4.4912,4.4937,4.4943,4.4951,4.4941,4.5001,4.5002,4.5003,4.4999,4.5,4.5001,0,0,0,0,0,4.4762,4.4778,4.4783,4.479,4.4829,4.4856,4.4861,4.4874,4.4872,4.4881,4.4895,4.49,4.4947,4.494,4.4946,4.4955,4.5001,4.5002,4.5003,4.4999,4.5,4.5001,0,0,0,0,0,0,4.475,4.4782,4.4787,4.4813,4.4832,4.4858,4.4869,4.4875,4.4894,4.4893,4.4909,4.4914,4.4937,4.4948,4.4939,4.4977,4.4974,4.4976,4.4968,4.497,4.4971,4.4967,4.4943,0,0,0,0,0,4.4751,4.477,4.4797,4.4817,4.4826,4.4846,4.4858,4.4867,4.4887,4.4894,4.491,4.4928,4.4947,4.4959,4.4978,4.5001,4.5007,4.5011,4.5011,4.5012,4.5014,4.5028,4.503,4.5007,4.5007,4.5007,0,0,4.4751,4.4771,4.4782,4.4815,4.483,4.485,4.4852,4.4872,4.4886,4.4897,4.492,4.4933,4.4954,4.4978,4.4989,4.4988,4.5021,4.5014,4.5014,4.5015,4.5029,4.5031,4.5033,4.5008,4.5008,4.5008,0,0,4.4763,4.478,4.4799,4.4815,4.484,4.4853,4.4858,4.4884,4.4893,4.4917,4.4926,4.4942,4.4974,4.499,4.5001,4.502,4.5025,4.5026,4.503,4.5044,4.5046,4.5047,4.5054,4.5056,4.5028,4.5028,4.5028,0,4.476,4.4791,4.4807,4.4828,4.4842,4.4854,4.4873,4.4887,4.4916,4.4925,4.4924,4.4966,4.4981,4.5008,4.5013,4.5022,4.5028,4.5023,4.5044,4.5046,4.5048,4.5054,4.5057,4.5028,4.5028,4.5028,4.5028,0,4.4787,4.4808,4.482,4.4849,4.4865,4.4884,4.4903,4.4916,4.4925,4.4938,4.4963,4.4982,4.5005,4.5012,4.502,4.5041,4.504,4.5041,4.5038,4.505,4.5056,4.5059,4.5028,4.5028,4.5028,4.5028,0,0,4.479,4.483,4.4834,4.4848,4.4877,4.4893,4.4913,4.4938,4.4949,4.4968,4.4985,4.5013,4.5015,4.5029,4.5038,4.505,4.5064,4.505,4.5051,4.5052,4.5089,4.5088,4.5091,4.5068,4.5069,4.5069,4.5088,0,4.4805,4.4843,4.4859,4.4889,4.4909,4.4921,4.4939,4.4958,4.4971,4.4989,4.5004,4.5023,4.5025,4.5033,4.5045,4.506,4.5072,4.5059,4.5083,4.5084,4.5077,4.5094,4.5092,4.5109,4.509,4.5091,4.5091,0,4.4827,4.4849,4.4881,4.4909,4.4918,4.4934,4.4958,4.4975,4.4997,4.5006,4.5022,4.5031,4.5052,4.5049,4.5078,4.5069,4.508,4.5089,4.509,4.5092,4.5088,4.5096,4.5114,4.5117,4.5095,4.5095,4.5095,0,4.4827,4.4864,4.4889,4.49,4.4933,4.4944,4.4958,4.498,4.4994,4.5014,4.5023,4.5046,4.5058,4.5074,4.5089,4.5086,4.5117,4.5115,4.5124,4.5124,4.513,4.5129,4.5149,4.5137,4.5137,4.5137,4.5137,0,4.4841,4.4861,4.4889,4.4904,4.4926,4.4945,4.4966,4.498,4.5,4.5017,4.5029,4.5045,4.5065,4.5083,4.5095,4.5117,4.5122,4.5129,4.5132,4.5128,4.5127,4.5135,4.5134,4.5138,4.5138,4.5138,4.5138,0,4.4844,4.4864,4.4892,4.4921,4.4929,4.4944,4.4969,4.4984,4.4999,4.5021,4.5027,4.5049,4.5071,4.5089,4.5117,4.5125,4.5148,4.5152,4.5141,4.5143,4.5151,4.515,4.5177,4.5181,4.5167,4.5167,4.5167,0,4.4852,4.4868,4.49,4.4913,4.4927,4.4949,4.4964,4.4982,4.4997,4.5024,4.5036,4.5059,4.5079,4.5114,4.5132,4.5154,4.5157,4.5165,4.5161,4.5156,4.5157,4.5156,4.5158,4.5166,4.5166,4.5166,4.5166,0,4.4864,4.4874,4.4895,4.4921,4.4939,4.4959,4.498,4.499,4.5012,4.5028,4.5052,4.5068,4.5098,4.5121,4.5145,4.5158,4.5166,4.5167,4.5171,4.5166,4.516,4.5164,4.5143,4.5166,4.5166,4.5166,4.5166,4.5166,4.487,4.4884,4.491,4.4934,4.4952,4.4971,4.4987,4.5004,4.5025,4.5052,4.5062,4.5086,4.5108,4.5142,4.5156,4.5175,4.5175,4.5179,4.5181,4.5181,4.5181,4.5158,4.5179,4.5179,4.5179,4.5179,4.5179,0,4.4882,4.49,4.4922,4.4951,4.497,4.4977,4.5001,4.5016,4.5038,4.5059,4.5079,4.5106,4.5129,4.515,4.5173,4.5184,4.5188,4.519,4.5189,4.5192,4.518,4.5174,4.5186,4.5186,4.5186,4.5186,4.5186,4.5186,4.4891,4.4917,4.4929,4.4964,4.4981,4.5006,4.5019,4.5037,4.5054,4.5085,4.5104,4.5118,4.5139,4.5165,4.5186,4.5191,4.5199,4.52,4.5206,4.5194,4.5193,4.5192,4.5187,4.5201,4.5201,4.5217,4.5217,4.5217]}]]